Temperature
11 11 11 12 12 12 12 12 13 13 14 14 14 14 14 14 15 15 15 15 16 16 16 16 16 16 17 17 17 17 17 17 17 16 17 17 17 17
10 10 10 11 11 12 12 12 12 12 13 14 14 14 14 14 14 15 15 15 16 16 16 16 16 16 16 16 16 16 16 16 16 16 16 16 16 16
10 10 10 10 11 11 11 12 12 12 12 13 13 13 13 13 14 14 14 15 15 16 16 16 16 16 16 16 16 16 16 16 16 16 16 16 16 16
9 9 10 10 10 10 11 11 11 12 12 12 12 13 13 13 13 13 14 14 15 15 16 16 16 16 16 16 16 16 16 16 16 16 16 16 16 16
9 9 9 9 9 10 10 11 11 11 11 11 12 12 12 13 13 13 14 14 14 15 15 15 15 16 16 16 16 16 16 16 16 16 16 16 16 16
9 9 9 9 9 9 10 10 10 11 11 11 11 12 12 12 12 13 13 13 14 14 14 15 15 15 15 15 15 15 16 16 16 16 16 16 16 16
8 8 8 8 9 9 9 10 10 10 11 11 11 12 12 12 12 12 12 13 13 13 14 14 14 15 15 15 15 15 15 15 15 16 16 16 16 16
8 8 8 8 8 8 9 9 9 9 10 11 11 12 11 12 12 12 12 12 12 12 13 13 13 14 14 14 15 15 15 15 15 15 15 16 16 16
8 8 8 9 8 8 8 8 9 9 9 9 10 11 11 11 11 12 12 12 12 12 12 12 12 13 13 14 14 15 15 15 15 15 15 15 15 15
8 8 8 8 8 8 8 8 8 8 9 9 9 10 10 10 11 11 11 11 11 12 12 12 12 12 12 13 13 14 14 14 14 15 15 15 15 15
8 8 8 7 8 7 7 7 8 8 9 9 9 9 9 10 10 10 11 11 11 11 11 12 11 11 11 12 12 13 13 13 14 14 14 14 14 14
8 8 7 7 7 7 7 7 7 8 8 9 9 9 9 10 10 10 11 11 11 11 11 11 11 11 11 11 11 12 12 12 13 13 13 13 14 13
8 8 8 7 7 7 7 7 7 7 8 8 8 9 9 9 9 10 10 11 11 11 11 11 11 11 11 10 10 11 11 12 12 12 13 13 13 13
7 7 7 7 7 7 7 7 7 7 7 8 8 8 9 9 10 10 10 10 10 11 11 11 11 11 11 10 10 10 10 11 11 12 12 12 12 12
7 7 7 7 7 7 7 7 7 6 7 7 8 8 9 9 10 9 10 10 10 10 10 11 11 11 11 11 10 10 10 10 11 11 11 12 12 12
7 7 7 7 7 6 6 6 7 7 7 7 8 8 9 9 9 9 9 9 9 10 10 10 10 10 10 10 11 10 10 10 10 11 11 11 11 11
7 7 6 6 6 6 7 6 7 7 7 7 8 8 8 8 9 9 9 9 9 9 10 10 10 10 10 10 10 10 10 10 11 11 10 10 10 11
6 6 6 6 6 7 7 7 7 7 7 7 8 8 8 8 9 9 9 9 9 9 9 10 10 9 9 9 10 10 10 10 10 10 10 10 10 10
7 6 6 7 7 7 7 7 7 7 7 7 7 8 8 8 8 9 9 9 9 9 9 9 9 9 9 9 9 10 10 10 10 10 10 10 10 10
7 7 7 7 7 7 7 7 7 7 7 7 7 7 8 8 8 8 9 9 9 9 9 9 9 9 10 10 10 10 10 10 10 10 10 10 10 10
7 7 7 7 7 7 7 7 7 7 7 7 7 7 8 8 8 8 9 9 9 9 9 9 9 10 10 10 10 10 10 9 10 10 10 9 9 9
7 7 7 7 7 7 7 7 7 7 7 7 7 7 8 8 8 8 9 9 9 9 9 9 9 9 9 9 10 9 9 9 9 9 9 10 10 9
7 7 7 7 7 7 7 7 7 7 7 7 7 8 8 8 8 8 9 9 9 9 9 9 9 9 9 9 9 9 9 9 9 9 8 9 9 10
Wind_Speed
12 12 12 11 10 10 9 9 10 10 10 7 5 4 4 5 6 9 11 13 19 23 24 25 26 27 28 29 29 29 29 28 28 28 28 27 27 26
11 12 12 12 10 10 10 10 10 10 11 9 6 6 5 5 5 7 8 9 15 19 20 21 23 24 26 26 27 27 27 26 26 25 25 25 24 24
13 13 13 13 12 11 10 10 10 10 11 10 8 6 6 6 5 4 6 7 8 14 17 19 20 21 22 23 23 24 24 23 23 23 23 22 22 21
14 14 14 12 13 13 11 12 11 10 11 12 9 7 7 6 5 4 3 4 4 8 13 15 17 18 19 20 21 21 21 21 20 20 19 19 19 18
14 14 14 14 14 13 13 13 12 11 11 11 11 7 6 6 5 4 3 2 3 6 9 11 13 15 16 18 18 18 18 18 18 18 17 16 16 15
14 14 14 15 15 14 13 14 13 13 12 12 11 8 7 6 6 5 4 3 3 5 6 8 11 12 13 15 16 17 17 17 17 17 16 15 14 14
14 14 15 14 12 11 12 12 12 12 12 12 11 9 8 6 6 5 5 4 3 4 5 6 7 7 9 12 13 15 16 16 16 16 16 15 14 13
15 15 15 15 15 15 16 16 15 15 14 13 12 11 10 9 7 6 5 5 4 5 5 4 5 6 6 7 11 14 15 15 15 16 16 16 15 14
15 14 14 14 13 15 16 20 20 20 18 16 15 13 11 9 9 10 9 7 5 7 6 4 4 5 5 8 13 14 14 15 16 16 16 16 15 14
16 16 15 15 15 13 14 15 16 17 18 18 17 14 12 9 9 10 8 7 5 6 7 4 5 4 5 7 11 13 14 15 16 16 16 17 16 15
15 15 15 15 13 10 13 15 16 15 14 14 13 11 7 4 5 8 8 8 6 6 6 5 5 4 4 5 8 12 13 15 16 16 17 18 19 17
12 13 13 15 11 10 14 15 16 15 14 13 14 13 13 11 10 11 10 9 7 6 6 6 7 6 4 4 6 9 10 12 15 16 17 19 18 13
11 11 9 12 14 13 14 14 14 12 13 12 12 13 13 12 12 13 12 10 9 6 8 8 7 7 5 5 5 6 8 9 10 11 14 15 12 8
12 11 8 7 11 13 13 13 12 10 12 11 11 12 12 12 12 12 12 12 9 7 9 9 7 8 8 7 6 7 7 9 10 9 11 12 8 5
12 10 9 6 9 11 15 14 12 12 12 12 12 12 12 11 10 10 11 10 10 9 11 10 8 9 9 8 9 8 7 7 9 9 10 10 10 10
12 11 12 13 13 12 9 12 13 12 12 12 12 11 10 10 10 10 10 10 9 8 9 11 10 11 9 9 10 11 9 9 10 10 10 10 11 12
8 8 9 9 9 10 10 10 11 11 12 12 11 11 10 10 10 10 10 10 10 9 9 8 7 6 6 7 9 11 11 10 11 11 11 10 10 10
8 9 9 9 9 9 10 10 10 11 11 11 11 11 11 11 11 10 10 10 10 10 10 10 9 6 4 2 6 10 10 10 11 12 11 11 11 10
8 10 9 9 9 9 9 10 10 10 10 11 11 11 10 10 11 11 11 11 10 10 11 11 11 11 11 9 7 8 10 10 12 12 11 10 11 11
9 10 9 9 8 8 9 9 9 9 9 10 10 10 10 10 10 11 11 12 11 10 10 11 13 13 12 10 8 8 12 12 12 12 11 8 7 9
8 8 8 8 7 7 8 8 8 8 9 10 10 10 10 10 10 11 11 12 11 11 12 12 11 10 7 7 8 8 10 11 11 10 12 11 10 11
7 7 7 6 6 7 7 8 8 8 9 9 9 10 10 10 11 12 11 11 11 11 11 10 12 11 9 10 11 11 10 9 7 10 8 5 9 11
7 6 6 6 6 6 7 8 9 8 9 9 9 10 10 10 10 10 10 11 11 11 11 11 11 10 9 10 10 10 12 12 9 9 7 5 5 6
Wind_Direction
267 261 255 261 259 257 257 261 272 280 281 280 267 275 283 270 262 243 237 216 213 212 212 212 212 211 210 208 209 211 212 214 216 218 219 220 221 223
268 270 269 264 261 258 256 255 257 265 274 280 279 283 293 284 267 256 245 220 214 211 207 207 209 207 206 204 205 207 209 211 213 215 216 217 218 218
268 264 260 264 264 261 257 254 253 255 264 271 275 279 278 277 270 256 245 229 213 200 198 199 202 201 199 198 200 202 204 206 209 210 212 213 213 215
266 266 264 261 256 257 257 256 255 255 261 268 273 275 270 263 253 245 244 227 207 177 183 187 190 190 191 192 194 196 197 199 200 202 202 203 204 207
266 264 263 262 260 257 255 255 253 249 247 256 261 265 269 258 245 231 213 192 170 153 159 166 173 177 180 182 183 185 186 187 188 189 191 193 195 198
264 263 262 259 257 256 255 253 253 254 250 250 253 254 254 252 233 221 203 175 157 153 141 141 149 157 165 169 172 175 177 178 179 181 183 185 187 189
266 262 259 259 268 265 263 260 254 249 249 245 246 244 243 241 231 222 208 176 166 162 150 149 151 156 158 161 166 169 171 173 174 175 177 178 180 180
269 265 262 252 244 236 246 259 265 260 256 253 248 243 238 236 231 227 209 193 188 172 165 161 162 157 158 160 155 160 165 168 170 171 171 171 171 171
268 265 264 262 250 247 235 230 241 246 252 258 258 253 244 230 227 222 210 205 199 173 164 164 160 149 137 126 142 153 157 160 162 163 163 161 160 159
262 261 260 262 260 256 255 250 246 238 232 235 245 250 249 245 232 230 221 203 193 185 174 168 160 148 131 127 140 149 153 154 154 155 155 152 148 145
262 259 258 258 252 241 252 257 257 254 242 232 238 247 259 241 236 230 213 201 200 193 183 165 154 138 132 135 138 146 149 150 150 150 151 148 144 138
267 261 247 245 255 227 244 249 252 251 250 232 220 223 229 223 214 226 222 210 205 197 180 164 157 150 141 139 149 152 148 147 149 151 154 155 157 154
274 269 261 210 221 226 238 249 253 261 255 246 236 226 221 218 215 216 221 217 211 204 179 170 169 170 153 144 153 163 160 156 154 154 161 168 179 185
274 273 273 201 211 222 232 243 249 255 252 245 236 229 221 216 215 214 213 216 217 202 181 178 175 176 161 155 155 162 167 166 165 164 164 168 168 143
269 279 285 258 235 235 233 232 232 235 238 236 232 229 224 218 214 209 208 209 208 199 187 191 183 176 174 168 161 164 166 172 175 169 167 173 173 168
260 258 241 238 242 254 235 218 225 230 231 231 231 228 223 213 210 207 203 196 198 194 191 190 188 179 181 173 166 169 170 170 176 176 172 173 176 179
300 278 264 250 236 233 233 227 222 220 223 228 229 225 218 211 207 206 202 197 198 190 183 181 175 171 173 169 169 174 174 171 173 173 174 174 178 179
276 264 258 252 244 236 231 226 222 221 219 220 220 219 214 209 206 203 199 201 202 195 185 176 167 158 152 160 173 175 177 173 170 174 180 176 175 178
248 254 254 252 246 238 232 228 224 219 216 216 215 213 212 208 204 201 198 199 203 198 186 176 175 176 180 180 178 188 178 169 166 175 185 183 178 173
245 253 255 251 241 235 233 229 224 218 211 212 211 211 208 204 202 201 199 199 200 196 187 182 185 188 192 182 167 177 185 172 171 175 179 176 154 131
258 255 253 250 242 234 232 228 222 216 211 206 204 206 206 204 204 204 202 196 199 197 192 190 186 176 170 156 153 160 174 178 175 175 174 167 162 167
268 264 257 247 238 230 227 222 217 212 210 209 205 203 205 204 204 205 202 197 200 199 195 183 168 170 178 182 174 161 160 163 147 142 134 141 175 183
264 264 256 241 230 222 220 217 213 210 207 205 203 203 203 203 203 202 201 201 200 196 185 175 171 178 186 184 173 161 160 161 162 164 159 68 81 102
Height
1505 1505 1504 1504 1504 1504 1504 1503 1503 1500 1498 1497 1496 1495 1495 1495 1496 1497 1500 1502 1506 1510 1514 1519 1524 1529 1533 1538 1542 1546 1551 1555 1559 1563 1566 1570 1573 1575
1499 1498 1498 1499 1499 1499 1499 1498 1498 1497 1495 1494 1493 1492 1491 1491 1491 1492 1494 1497 1500 1504 1508 1513 1517 1522 1527 1531 1536 1540 1544 1549 1553 1556 1560 1563 1566 1569
1494 1493 1492 1492 1493 1493 1493 1493 1493 1492 1491 1490 1490 1488 1487 1487 1487 1488 1490 1492 1495 1498 1503 1507 1511 1516 1521 1525 1530 1534 1538 1542 1546 1550 1554 1557 1560 1563
1488 1487 1487 1487 1486 1487 1487 1487 1487 1487 1487 1485 1485 1485 1484 1483 1484 1484 1486 1487 1489 1492 1497 1501 1506 1510 1515 1519 1524 1528 1532 1536 1540 1544 1548 1551 1554 1557
1482 1481 1481 1481 1480 1481 1481 1481 1481 1481 1481 1481 1480 1480 1480 1480 1480 1481 1482 1483 1485 1487 1492 1496 1500 1505 1509 1514 1518 1522 1527 1531 1535 1538 1541 1545 1548 1552
1475 1475 1474 1474 1474 1474 1474 1474 1475 1476 1476 1476 1475 1475 1475 1475 1476 1477 1478 1479 1481 1484 1487 1491 1496 1500 1504 1509 1513 1517 1521 1525 1529 1533 1536 1540 1543 1546
1469 1468 1467 1467 1467 1467 1468 1469 1469 1470 1470 1470 1470 1470 1471 1471 1472 1473 1474 1476 1478 1481 1484 1487 1491 1496 1499 1504 1508 1512 1516 1520 1524 1528 1531 1535 1538 1541
1462 1461 1460 1459 1459 1459 1459 1461 1462 1463 1464 1465 1465 1465 1466 1467 1468 1469 1471 1472 1474 1478 1481 1484 1488 1492 1495 1499 1503 1508 1512 1516 1519 1523 1527 1530 1533 1537
1454 1453 1453 1453 1453 1453 1452 1452 1453 1454 1456 1458 1459 1460 1461 1462 1464 1465 1466 1468 1470 1473 1477 1480 1483 1487 1491 1495 1499 1504 1507 1511 1515 1519 1522 1526 1529 1532
1447 1446 1445 1445 1445 1446 1446 1447 1447 1448 1449 1450 1452 1454 1457 1458 1459 1461 1462 1464 1466 1469 1473 1476 1480 1483 1487 1491 1495 1500 1504 1508 1511 1515 1519 1522 1525 1528
1440 1439 1438 1437 1438 1438 1439 1439 1440 1441 1443 1444 1445 1447 1450 1452 1454 1456 1457 1459 1461 1464 1468 1471 1475 1480 1484 1488 1492 1496 1500 1504 1508 1512 1515 1519 1522 1525
1434 1432 1430 1430 1431 1430 1431 1432 1433 1435 1436 1437 1438 1440 1443 1445 1448 1450 1453 1455 1457 1460 1463 1467 1471 1476 1481 1484 1488 1493 1497 1501 1505 1508 1512 1516 1519 1522
1428 1426 1425 1424 1423 1424 1424 1425 1426 1428 1429 1431 1432 1434 1436 1439 1441 1444 1447 1450 1453 1456 1459 1462 1466 1471 1476 1480 1485 1489 1493 1497 1501 1505 1509 1512 1516 1519
1421 1420 1419 1418 1417 1417 1417 1418 1419 1421 1423 1424 1426 1427 1430 1433 1436 1439 1442 1445 1448 1451 1455 1458 1462 1466 1471 1475 1480 1485 1489 1493 1498 1501 1505 1509 1513 1516
1415 1414 1412 1411 1411 1411 1410 1411 1413 1414 1416 1418 1419 1421 1424 1427 1431 1433 1436 1439 1443 1446 1450 1454 1458 1462 1467 1471 1475 1480 1485 1489 1494 1498 1502 1506 1510 1513
1409 1407 1405 1404 1404 1404 1404 1404 1406 1407 1409 1411 1413 1416 1419 1421 1425 1428 1431 1434 1438 1441 1445 1449 1453 1458 1463 1467 1472 1476 1481 1485 1490 1495 1499 1503 1507 1511
1404 1401 1400 1399 1398 1398 1398 1399 1400 1401 1403 1405 1408 1410 1413 1416 1419 1423 1426 1430 1433 1436 1440 1445 1449 1454 1459 1463 1468 1472 1477 1482 1486 1491 1496 1500 1504 1508
1398 1395 1394 1393 1392 1392 1392 1393 1394 1395 1397 1400 1402 1405 1408 1411 1415 1418 1422 1425 1429 1432 1436 1440 1444 1450 1455 1460 1464 1468 1473 1477 1482 1487 1492 1497 1501 1505
1392 1390 1388 1387 1387 1387 1387 1388 1389 1390 1392 1395 1397 1400 1404 1407 1410 1414 1417 1421 1424 1428 1431 1435 1439 1444 1449 1454 1459 1464 1469 1473 1478 1483 1488 1494 1498 1501
1387 1385 1383 1382 1382 1382 1382 1383 1384 1386 1388 1390 1393 1396 1400 1403 1406 1410 1413 1417 1420 1424 1427 1431 1435 1440 1444 1449 1454 1459 1464 1468 1473 1478 1484 1490 1495 1498
1382 1380 1379 1378 1378 1378 1378 1379 1381 1382 1384 1386 1389 1393 1396 1399 1403 1406 1410 1413 1417 1420 1424 1427 1431 1437 1442 1447 1451 1454 1460 1465 1469 1474 1480 1485 1489 1493
1378 1376 1375 1375 1374 1374 1375 1376 1377 1379 1381 1384 1387 1390 1393 1396 1399 1403 1406 1409 1413 1417 1420 1424 1428 1433 1437 1442 1446 1450 1455 1460 1466 1471 1477 1481 1484 1488
1374 1373 1372 1371 1371 1371 1372 1373 1375 1377 1379 1382 1384 1387 1391 1394 1397 1400 1403 1406 1410 1414 1417 1421 1424 1429 1434 1438 1442 1446 1451 1456 1461 1466 1472 1476 1481 1486